TimeAST,TemperatureF,Dew PointF,Humidity,Sea Level PressureIn,VisibilityMPH,Wind Direction,Wind SpeedMPH,Gust SpeedMPH,PrecipitationIn,Events,Conditions,WindDirDegrees,DateUTC
12:00 AM,80.6,75.2,84,29.95,6.2,East,9.2,-,N/A,,Partly Cloudy,90,2013-04-21 04:00:00
1:00 AM,80.6,75.2,84,29.95,6.2,East,10.4,-,N/A,,Partly Cloudy,100,2013-04-21 05:00:00
2:00 AM,79,74,81,29.93,12,ESE,5.8,,,,Haze,120,2013-04-21 06:00:00
2:00 AM,78.8,73.4,83,29.92,6.2,ESE,5.8,-,N/A,,Partly Cloudy,120,2013-04-21 06:00:00
3:00 AM,80.6,75.2,84,29.92,6.2,East,9.2,-,N/A,,Partly Cloudy,90,2013-04-21 07:00:00
4:00 AM,78.8,75.2,89,29.92,6.2,East,8.1,-,N/A,,Partly Cloudy,100,2013-04-21 08:00:00
5:00 AM,78.8,73.4,83,29.92,6.2,ESE,8.1,-,N/A,,Partly Cloudy,110,2013-04-21 09:00:00
6:00 AM,78.8,73.4,83,29.92,6.2,ESE,5.8,-,N/A,,Partly Cloudy,120,2013-04-21 10:00:00
7:00 AM,78.8,73.4,83,29.92,6.2,SE,5.8,-,N/A,,Partly Cloudy,130,2013-04-21 11:00:00
8:00 AM,82,75,74,29.96,16,East,10.4,,,,Scattered Clouds,100,2013-04-21 12:00:00
8:00 AM,82.4,75.2,79,29.95,6.2,East,10.4,-,N/A,,Partly Cloudy,100,2013-04-21 12:00:00
9:00 AM,84.2,75.2,74,29.98,6.2,East,9.2,-,N/A,,Scattered Clouds,90,2013-04-21 13:00:00
10:00 AM,86.0,75.2,70,29.98,6.2,East,9.2,-,N/A,,Scattered Clouds,80,2013-04-21 14:00:00
11:00 AM,86,75,63,29.99,16,East,9.2,,,,Partly Cloudy,80,2013-04-21 15:00:00
11:00 AM,87.8,75.2,66,29.98,6.2,East,9.2,-,N/A,,Scattered Clouds,80,2013-04-21 15:00:00
12:00 PM,86.0,75.2,70,29.98,6.2,East,11.5,-,N/A,,Scattered Clouds,80,2013-04-21 16:00:00
1:00 PM,87.8,73.4,62,29.95,6.2,East,11.5,-,N/A,,Scattered Clouds,80,2013-04-21 17:00:00
2:00 PM,88,74,56,29.92,16,East,10.4,,,,Scattered Clouds,80,2013-04-21 18:00:00
2:00 PM,87.8,75.2,66,29.92,6.2,East,10.4,-,N/A,,Partly Cloudy,80,2013-04-21 18:00:00
3:00 PM,87.8,75.2,66,29.89,6.2,ENE,9.2,-,N/A,,Partly Cloudy,70,2013-04-21 19:00:00
4:00 PM,86.0,75.2,70,29.89,6.2,ENE,9.2,-,N/A,,Scattered Clouds,70,2013-04-21 20:00:00
5:00 PM,85,74,64,29.87,16,ENE,10.4,,,,Scattered Clouds,70,2013-04-21 21:00:00
5:00 PM,84.2,75.2,74,29.86,6.2,ENE,10.4,-,N/A,,Partly Cloudy,70,2013-04-21 21:00:00
6:00 PM,84.2,75.2,74,29.86,6.2,ENE,10.4,-,N/A,,Partly Cloudy,60,2013-04-21 22:00:00
7:00 PM,80.6,75.2,84,29.89,6.2,ENE,11.5,-,N/A,,Partly Cloudy,70,2013-04-21 23:00:00
8:00 PM,81,74,75,29.93,16,East,11.5,,,,Partly Cloudy,80,2013-04-22 00:00:00
8:00 PM,80.6,75.2,84,29.92,6.2,East,11.5,-,N/A,,Scattered Clouds,80,2013-04-22 00:00:00
9:00 PM,80.6,73.4,79,29.95,6.2,East,11.5,-,N/A,,Scattered Clouds,80,2013-04-22 01:00:00
10:00 PM,80.6,75.2,84,29.95,6.2,East,11.5,-,N/A,,Scattered Clouds,80,2013-04-22 02:00:00
11:00 PM,80,75,79,29.97,16,East,10.4,,,,Partly Cloudy,100,2013-04-22 03:00:00
11:00 PM,80.6,75.2,84,29.95,6.2,East,10.4,-,N/A,,Scattered Clouds,90,2013-04-22 03:00:00